Regional Weather Roundup
Issued by NWS Kansas City/Pleasant Hill, MO

Home | Current Version | Previous Version | Text Only | Print | Product List | Glossary On
Versions: 1 2 3 4 5 6 7 8 9 10 11 12 13 14 15 16 17 18 19 20 21 22 23 24 25 26 27 28 29 30 31 32 33 34 35 36 37 38 39 40 41 42 43 44 45 46 47 48 49 50
000
ASUS43 KEAX 120710
RWREAX

WEATHER ROUNDUP FOR EASTERN KANSAS AND NORTHWEST MISSOURI
NATIONAL WEATHER SERVICE KANSAS CITY/PLEASANT HILL MO
100 AM CST FRI FEB 12 2016

KSZ040-057-103>105-MOZ028-029-037-043-120800-
...KANSAS CITY METROPOLITAN AREA...

CITY           SKY/WX    TMP DP  RH WIND       PRES   REMARKS
K.C. INTL      CLOUDY    30  22  72 NE6       30.18S WCI  24
K.C. DOWNTOWN  CLOUDY    31  22  69 E6        30.19S WCI  25
LEES SUMMIT    CLOUDY    30  21  69 NE7       30.17F WCI  23
OLATHE - IXD   CLEAR     28  21  75 NE5       30.17S WCI  23
OLATHE - OJC   CLEAR     29  20  69 NE5       30.17R WCI  24
LAWRENCE       CLEAR     23  20  88 NW3       30.19R

$$

MOZ001>008-011>017-020>025-030>033-038>040-044>046-053-054-120800-
...NORTHERN AND CENTRAL MISSOURI...

CITY           SKY/WX    TMP DP  RH WIND       PRES   REMARKS
ST. JOSEPH     CLOUDY    30  21  69 NE7       30.22R WCI  23
MOSBY          CLOUDY    30  21  69 NE5       30.21R WCI  25
WARRENSBURG    CLOUDY    30  23  74 NE6       30.18F WCI  24
WHITEMAN AFB   MOCLDY    29  22  76 NE3       30.17S
CLINTON          N/A     30  23  74 NE5       30.17S WCI  25
SEDALIA        CLOUDY    29  23  78 NE6       30.19S WCI  23
WARSAW         NOT AVBL
CHILLICOTHE      N/A     27  15  61 E3        30.23F
KIRKSVILLE     CLOUDY    21  15  78 E6        30.22F WCI  13

$$

MOZ041-047>049-056>058-063>065-088>090-097-120800-
...EASTERN AND SOUTHERN MISSOURI...

CITY           SKY/WX    TMP DP  RH WIND       PRES   REMARKS
ST. LOUIS INTL LGT SNOW  25  21  86 SE5       30.23F FOG     WCI  19
SPIRIT OF STL  LGT SNOW  25  21  86 E7        30.22F FOG     WCI  17
COLUMBIA       CLOUDY    26  23  88 E7        30.18F WCI  18
JEFFERSON CITY CLOUDY    27  23  85 E6        30.19F WCI  20
ROLLA          PTCLDY    28  20  71 E6        30.13F WCI  22
OSAGE BEACH    PTCLDY    28  18  64 NE5       30.15F WCI  23
SPRINGFIELD    PTCLDY    33  21  61 S8        30.12F WCI  26
BRANSON        CLEAR     34  21  60 SE5       30.15F WCI  30
JOPLIN         CLEAR     29  22  75 SW5       30.17F WCI  24
WEST PLAINS    CLOUDY    31  20  63 SE3       30.16F

$$

IAZ060-094-KSZ022-034>040-054-083-096-NEZ052-066-093-120800-
...KANSAS...SOUTHEAST NEBRASKA AND IOWA...

CITY           SKY/WX    TMP DP  RH WIND       PRES   REMARKS
TOPEKA         CLEAR     29  22  75 CALM      30.19R
MANHATTAN      CLOUDY    26  23  88 VRB3      30.19R
EMPORIA        CLOUDY    28  22  78 W6        30.15S WCI  22
CHANUTE        CLEAR     28  23  81 S6        30.16F WCI  22
WICHITA        PTCLDY    31  24  75 SW3       30.18S
OMAHA          CLOUDY    24  20  84 N8        30.24S WCI  15
LINCOLN        CLOUDY    29  25  85 N5        30.22F FOG     WCI  24
FALLS CITY     CLOUDY    31  22  69 NE6       30.20S WCI  25
LAMONI         CLOUDY    21  17  84 SE3       30.20F
DES MOINES     CLOUDY    19  15  84 S3        30.22F

$$




USA.gov is the U.S. government's official web portal to all federal, state and local government web resources and services.